Погода в Пескьера-дель-Гарда

Италия     45°26′24″N   10°41′21″E
темп.,
°C
ветер,
м/с
пор.,
м/с
влажн.,
%
обл.,
%
осадки,
мм/ч
давл.,
гПа
погр.,
м
9 марта, вт
вт901:00+7ююз007524 0.0 101889
04:00+7с116778 0.0 1017137
07:00+7ююв116853 0.0 1017159
10:00+8ююв22580 0.0 1016442
13:00+10ююв11460 0.0 1014918
16:00+10с21520 0.0 1013600
19:00+10всв11614 0.0 1014152
22:00+8юв2366100 0.0 1017194
10 марта, ср
ср1001:00+8ю116499 0.0 1018243
04:00+7зсз237738 0.0 1018344
07:00+6зюз337532 0.0 1020275
10:00+8зюз336138 0.0 1020573
13:00+9зюз335319 0.0 1019843
16:00+10зюз23530 0.0 1018622
19:00+9сз11610 0.0 102092
22:00+9ссв11620 0.0 102262
11 марта, чт
чт1101:00+8юв11651 0.0 102274
04:00+7св116654 0.0 102288
07:00+7всв006764 0.0 102289
10:00+8ююз2164100 0.0 1022242
13:00+10зюз1359100 0.0 1021434
16:00+11сз2363100 0.0 1019298
19:00+10юз1270100 0.0 101975
22:00+10юз1168100 0.0 1019105
12 марта, пт
пт1201:00+9ссз1266100 0.0 1018116
04:00+9св3368100 0.0 1017114
07:00+8в3471100 0.0 1017300
10:00+8вюв1272100 0.3 1016224
13:00+8с1179100 0.6 1015204
16:00+8зсз1180100 0.1 1013171
19:00+8ссз1180100 0.1 1013147
22:00+8зюз238370 0.0 1015193
13 марта, сб
сб1301:00+7зюз118534 0.0 101596
04:00+8ссз22760 0.0 1015163
07:00+7в23760 0.0 1016181
10:00+9юв23722 0.0 1017328
13:00+11юв23699 0.0 1016361
16:00+12вюв127072 0.0 1014365
19:00+10св117749 0.0 101461
22:00+10юв127574 0.0 1015124